STARLINK-36073

Last updated on Mon Dec 15 2025 00:02:12 GMT+0000 (Coordinated Universal Time)

1 66844U 25280Z 25348.25003472 -.01611385 00000+0 -12584-1 0 9997 2 66844 69.9936 194.4933 0003326 271.2068 70.0040 15.74159640 3146
UTC large
Height (km)
Speed (km/s)
/
Latitude / Longitude
Inclination (degrees)
Orbital Period (minutes)
Azimuth
Elevation
Range (km)
Doppler Factor

Next 0 passes for location: London (51.5072 / 0.1276)

Sorry there are no passes over London.